Location: Unspecified
(0.0000°N, 0.0000°E)
Time: 06:58:14
(UTC+00:00)

Hubble Space Telescope - Pass Details

Date: 19 October 2019
Orbit: 536 x 540 km, 28.5° (Epoch: 14 October)

Event Time Altitude Azimuth Distance (km) Brightness Sun altitude
Rises 18:14:10 0° 295° (WNW) 2,671 5.3 -7.2°
Reaches altitude 10° 18:16:26 10° 291° (WNW) 1,783 4.5 -7.7°
Maximum altitude 18:20:31 62° 211° (SSW) 604 1.2 -8.7°
Drops below altitude 10° 18:24:36 10° 129° (SE) 1,787 3.1 -9.8°
Enters shadow 18:25:56 - 127° (SE) 2,300 3.6 -10.1°
